Location: *
(32.8140°S, 174.6161°E)
Time: 00:16:54
(UTC+00:00)

Cosmos 1515 Rocket - Pass Details

Date: 10 December 2019
Orbit: 607 x 629 km, 82.5° (Epoch: 27 January)

Event Time Altitude Azimuth Distance (km) Brightness Sun altitude
Exits shadow 16:09:52 10° 340° (NNW) 2,008 5.7 -10.9°
Reaches altitude 10° 16:09:52 10° 339° (NNW) 2,005 5.7 -10.9°
Maximum altitude 16:14:14 54° 262° (W) 777 3.8 -10.1°
Drops below altitude 10° 16:18:40 10° 184° (S) 2,037 6.7 -9.4°
Sets 16:20:58 0° 179° (S) 2,952 7.6 -9.0°
